Regional Weather Roundup
Issued by NWS

Home | Current Version | Previous Version | Text Only | Print | Product List | Glossary On
Versions: 1 2 3 4 5 6 7 8 9 10 11 12 13 14 15 16 17 18 19 20 21 22 23 24 25 26 27 28 29 30 31 32 33 34 35 36 37 38 39 40 41 42 43 44 45 46 47 48 49 50
000
ASUS43 KLMK 231810
RWRKY
KENTUCKY REGIONAL WEATHER ROUNDUP
NATIONAL WEATHER SERVICE LOUISVILLE KY
100 PM EST THU FEB 23 2017

NOTE "FAIR" INDICATES FEW OR NO CLOUDS BELOW 12,000 FEET
WITH NO SIGNIFICANT WEATHER AND/OR OBSTRUCTIONS TO VISIBILITY.

KYZ001>023-026-027-061>063-070>075-231900-
WESTERN AND SOUTH CENTRAL KENTUCKY

CITY           SKY/WX    TMP DP  RH WIND       PRES   REMARKS
PADUCAH        CLOUDY    69  55  60 SW9       29.74F
HENDERSON      CLOUDY    70  55  60 S12G18    29.75F
OWENSBORO      PTSUNNY   71  59  65 S14       29.77F
HOPKINSVILLE   PTSUNNY   69  58  66 SW12      29.79F
BOWLING GREEN  CLOUDY    70  57  63 S15       29.81F
GLASGOW        CLOUDY    68  56  67 S8        29.82F
$$

KYZ024-025-028>034-038-045-046-053-231900-
NORTH CENTRAL KENTUCKY

CITY           SKY/WX    TMP DP  RH WIND       PRES   REMARKS
LOUISVILLE/SDF CLOUDY    68  56  65 S13       29.79F
LOUISVILLE/LOU CLOUDY    67  57  70 S7        29.80F
FORT KNOX      CLOUDY    67  58  73 S12       29.79F
$$

KYZ035>037-039>044-047>052-055>060-089>105-231900-
NORTHEAST KENTUCKY

CITY           SKY/WX    TMP DP  RH WIND       PRES   REMARKS
LEXINGTON      CLOUDY    66  56  70 SW12      29.83F
COVINGTON      CLOUDY    68  57  68 SW8       29.78F
FRANKFORT      CLOUDY    66  55  67 S12       29.81F
$$

KYZ054-064>069-076>088-106>120-231900-
SOUTHEAST KENTUCKY

CITY           SKY/WX    TMP DP  RH WIND       PRES   REMARKS
JACKSON        CLOUDY    66  55  67 CALM      29.87F
LONDON         CLOUDY    67  53  61 S7        29.85F
SOMERSET       CLOUDY    64  54  68 S5        29.86F
MIDDLESBORO    CLOUDY    64  56  73 CALM      29.88F
MONTICELLO     CLOUDY    69  57  65 W10       29.85F
$$





USA.gov is the U.S. government's official web portal to all federal, state and local government web resources and services.